Regional Weather Roundup
Issued by NWS Austin/San Antonio, TX

Home | Current Version | Previous Version | Text Only | Print | Product List | Glossary On
Versions: 1 2 3 4 5 6 7 8 9 10 11 12 13 14 15 16 17 18 19 20 21 22 23 24 25 26 27 28 29 30 31 32 33 34 35 36 37 38 39 40 41 42 43 44 45 46 47 48 49 50
965
ASUS44 KEWX 280911
RWREWX
SOUTH TEXAS REGIONAL WEATHER ROUNDUP
NATIONAL WEATHER SERVICE AUSTIN/SAN ANTONIO TX
400 AM CDT WED JUN 28 2017

NOTE: "FAIR" INDICATED FEW OR NO CLOUDS BELOW 12,000 FEET WITH NO
SIGNIFICANT WEATHER AND/OR OBSTRUCTIONS TO VISIBILITY.

* - THESE STATIONS ARE NOT NWS OR FAA STATIONS...AND ARE NOT SUBJECT
    TO NWS AND FAA QUALITY CONTROL.

TXZ171-172-183>190-281000-
TEXAS HILL COUNTRY AND EDWARDS PLATEAU

CITY           SKY/WX    TMP DP  RH WIND       PRES   REMARKS
JUNCTION       CLEAR     70  66  87 CALM      29.98F
*LLANO         CLOUDY    70  70 100 CALM      30.00F
BURNET         MOCLDY    70  68  93 CALM      29.99F
*HORSESHOE BAY CLEAR     68  66  96 MISG      29.97F
*KERRVILLE     CLOUDY    69  67  95 CALM      29.98F
*FREDERICKSBRG CLOUDY    70  67  91 CALM      29.99S
*ROCKSPRINGS   CLOUDY    68  68 100 S8        30.01F
*BOERNE STAGE  CLOUDY    68  68 100 CALM      29.97F
*CASTROVILLE   CLEAR     68  68  98 CALM      29.95F
HONDO          MOCLDY    68  67  96 NE5       29.94F
*UVALDE        MOCLDY    68  67  97 CALM      29.95F
DEL RIO        CLEAR     72  69  90 E7        29.92F
LAUGHLIN AFB   PTCLDY    71  68  90 E6        29.93F
CARRIZO SPRGS  CLEAR     70  70 100 E3        29.91F
*EAGLE PASS      N/A    N/A N/A N/A MISG        N/A
$$

TXZ173-191>194-202-209-217>225-228-281000-
CENTRAL AND SOUTH CENTRAL TEXAS

CITY           SKY/WX    TMP DP  RH WIND       PRES   REMARKS
GEORGETOWN     CLEAR     72  64  78 CALM      29.96S
AUSTIN/BERGSTM CLOUDY    73  71  93 CALM      29.95R
AUSTIN/MABRY   PTCLDY    71  69  93 CALM      29.96S
*AUSTIN/EXEC     N/A     70  70 100 CALM      29.96S
*LAGO VISTA    CLEAR     72  71  96 CALM      29.98S
SAN MARCOS     PTCLDY    68  68 100 CALM      29.96S
NEW BRAUNFELS  PTCLDY    69  68  96 N6        29.93S
RANDOLPH AFB   CLEAR     70  70 100 CALM      29.93F
PT SAN ANTONIO CLEAR     70  68  94 NE3       29.91F
SAN ANTONIO    MOCLDY    72  69  90 CALM      29.94F
STINSON FIELD  PTCLDY    73  69  87 N3        29.91F
*LA GRANGE     CLOUDY    74  73  98 CALM      29.92S
*GIDDINGS      MOCLDY    71  69  96 CALM      29.96S
*GONZALES      CLEAR     73  73 100 NE3       29.92S
$$

TXZ163>164-176>182-195>201-210>213-226-227-235-281000-
SOUTHEAST TEXAS

CITY           SKY/WX    TMP DP  RH WIND       PRES   REMARKS
COLLEGE STN    CLEAR     70  70 100 NE3       29.95S
*BRYAN         CLEAR     69  69 100 CALM      29.96F
*CALDWELL      NOT AVBL
*CROCKETT      CLEAR     70  68  94 CALM      30.00S
*BRENHAM       MOCLDY    73  73  97 CALM      29.95S
HUNTSVILLE     CLEAR     71  68  90 CALM      29.95F
CONROE         PTCLDY    70  69  97 NW3       29.95S
HOUSTON BUSH   PTCLDY    74  72  93 NE3       29.93F
HOUSTON HOBBY  MOCLDY    76  73  91 CALM      29.91F
*HOUSTON SW AP MOCLDY    74  71  90 E5        29.92F
PEARLAND       NOT AVBL
HOUSTON HOOKS  MOCLDY    75  72  90 E3        29.93F
ELLINGTON FLD  MOCLDY    77  73  88 E8        29.94F
SUGAR LAND     MOCLDY    77  74  90 E7        29.91F
*HOUSTON EXEC  MOCLDY    73  72  94 NE5       29.93F
*CLEVELAND MUN CLOUDY    72  71  96 CALM      29.95S FOG
*WHARTON       CLEAR     72  70  93 CALM      29.91F
*COLUMBUS      MOCLDY    73  71  93 CALM      29.93S
*EAGLE LAKE    SUNNY     74  73  99 CALM      29.92S
$$

TXZ214>216-236>238-281000-
THE UPPER TEXAS COAST

CITY           SKY/WX    TMP DP  RH WIND       PRES   REMARKS
*ORANGE        CLEAR     73  73  98 E5        29.95F
PORT ARTHUR    CLEAR    N/A N/A N/A MISG        N/A
GALVESTON      MOCLDY    78  74  87 E8        29.91F
ANGLETON       CLEAR     74  73  97 NE6       29.89F
*BAY CITY      MOCLDY    74  74  98 CALM      29.89F
PALACIOS       PTCLDY    72  72 100 NE9       29.88F
$$

TXZ229>234-239>247-281000-
TEXAS COASTAL BEND AND RIO GRANDE PLAINS

CITY           SKY/WX    TMP DP  RH WIND       PRES   REMARKS
VICTORIA       PTCLDY    74  72  93 NE6       29.90S
*BEEVILLE      CLEAR    N/A N/A N/A N6        29.89S
ROCKPORT       CLEAR     79  73  82 NE5       29.86F
*PORT ARANSAS  PTCLDY    79  73  81 CALM      29.85F
*PORT LAVACA   PTCLDY    75  75 100 CALM      29.89S
*INGLESIDE     CLEAR     76  74  92 MISG      29.85F
CORPUS CHRISTI PTCLDY    78  75  90 NW3       29.86F
CORPUS NAS     CLEAR     80  75  84 CALM      29.85F
*ROBSTOWN      CLEAR     75  32  20 N3        29.87S
ALICE          CLEAR     74  72  93 CALM      29.87F
KINGSVILLE NAS CLEAR     75  75 100 N6        29.86F
COTULLA        MOCLDY    72  70  93 NE5       29.90F
*FAITH RANCH   CLEAR     73  72  94 NE5       29.91F
LAREDO         PTCLDY    74  71  91 E3        29.90F
$$

TXZ248>255-281000-
DEEP SOUTH TEXAS

CITY           SKY/WX    TMP DP  RH WIND       PRES   REMARKS
BROWNSVILLE    MOCLDY    76  76 100 SE3       29.85S
PORT ISABEL    MOCLDY    76  75  97 CALM      29.84S
*SOUTH PADRE   NOT AVBL
HARLINGEN      PTCLDY    75  75 100 NW5       29.84S
*HEBBRONVILLE  MOCLDY    71  69  94 CALM      29.90S
MCALLEN        MOCLDY    81  74  79 NE5       29.86S
*WESLACO       MOCLDY    75  73  94 CALM      29.85S
FALFURRIAS     PTCLDY    75  73  93 CALM      29.86F
EDINBURG       CLOUDY    78  74  89 N3        29.86F
*ZAPATA        CLOUDY    77  71  81 CALM      29.88F
$$

TXZ213>215-236>238-242>244-246-247-251-254-255-281000-
CMAN STATIONS

STATION/POSITION TIME  TEMP    WIND        PRES    WAVE
                       AIR SEA DIR/SP/G            HT/PER
                 (UTC) (F)     (DEG/KT/KT) (MB)    (FT/S)
SABINE PASS      0848   80 84  110/ 10/ 13 1014.8
SEA RIM ST PARK  0900   80     120/ 11/ 15 1013.7
NORTH JETTY/GLS  0848          120/ 13/ 17   N/A
EAGLE POINT      0848   79 82   90/ 12/ 14 1013.1
MORGANS POINT    0848   76 83  100/ 12/ 18 1013.2
MISSION/ARANSAS  0800           40/  6       N/A
PORT O`CONNOR    0848   80     100/ 10/ 11 1011.0
PORT ARANSAS     0900   81 84   80/  4/  5 1010.8
MALAQUITE BEACH  0848   81 85   80/  5/  6 1010.1
PORT ISABEL      0848   79 86              1010.7
$$




USA.gov is the U.S. government's official web portal to all federal, state and local government web resources and services.